SCP
-0 -0 -0 -0 0 0 0 -0 0 -0 0 0 -0 -0 -0 -0 -0 -0 -0 -0 -0 -0 -0 -0 -0 -0 0 0 -0 -0 0 0 -0 -0 0 0 0 0 0 0 0 0 0 0 0 0 0
-0 -0 -0 0 -0 0 -0 0 0 -0 -0 -0 -0 -0 -0 -0 -0 -0 -0 -0 -0 -0 -0 -0 -0 -0 0 0 0 0 0 0 -0 0 0 0 0 0 0 0 0 0 0 0 0 0 0
-0 0 -0 0 0 0 -0 -0 -0 -0 -0 -0 -0 -0 -0 -0 -0 -0 -0 -0 -0 -0 -0 -0 -0 0 0 -0 0 0 0 -0 0 0 0 0 0 0 0 0 0 0 0 0 0 0 0
0 -0 -0 -0 -0 0 0 0 -0 -0 -0 -0 -0 -0 -0 -0 -0 -0 -0 -0 -0 -0 -0 -0 0 0 0 0 0 0 0 -0 -0 0 0 0 0 0 0 0 0 0 0 0 0 0 0
0 0 -0 -0 -0 -0 0 -0 -0 -0 -0 -0 -0 -0 -0 -0 -0 -0 -0 -0 -0 -0 -0 -0 0 0 0 -0 0 0 0 0 0 0 0 0 0 0 0 0 0 0 0 0 0 0 0
0 0 0 0 0 0 -0 -0 -0 -0 -0 -0 -0 -0 -0 -0 -0 -0 -0 -0 0 0 0 -0 0 0 0 0 -0 -0 0 0 0 0 0 0 0 0 0 0 0 0 0 0 0 0 0
0 0 0 0 0 0 -0 -0 -0 -0 -0 -0 -0 -0 -0 -0 -0 0 -0 0 0 0 0 -0 0 0 -0 0 0 0 0 0 0 0 0 0 0 0 0 0 0 0 0 0 0 0 0
0 0 0 0 0 0 0 0 -0 -0 -0 -0 -0 -0 -0 -0 -0 -0 0 0 0 -0 0 -0 -0 0 -0 -0 0 0 0 0 0 0 0 0 0 0 0 0 0 0 0 0 0 0 0
0 0 0 0 0 0 0 0 0 0 -0 -0 -0 -0 -0 -0 -0 0 0 0 0 0 0 0 0 0 -0 -0 0 0 0 0 0 0 0 0 0 0 0 0 0 0 0 0 0 0 0
0 0 0 0 0 0 0 0 0 0 -0 -0 -0 -0 -0 -0 0 0 0 0 0 0 0 0 0 -0 -0 -0 0 0 0 0 0 0 0 0 0 0 0 0 0 0 0 0 0 0 0
0 0 0 0 0 0 0 0 0 0 0 -0 -0 -0 -0 0 0 0 0 0 0 0 0 0 0 0 0 0 0 0 0 0 0 0 0 0 0 0 0 0 0 0 0 0 0 0 0
0 0 0 0 0 0 0 0 0 0 -0 0 -0 0 0 0 0 0 0 0 0 0 0 0 0 0 0 0 0 0 0 0 0 0 0 0 0 0 0 0 0 0 0 0 0 0 0
0 0 0 0 0 0 0 0 0 0 -0 -0 -0 -0 0 0 0 0 0 0 0 0 0 0 0 0 0 0 0 0 0 0 0 0 0 0 0 0 0 0 0 0 0 0 0 0 0
0 0 0 0 0 0 0 0 0 0 -0 -0 0 0 0 0 -0 -0 0 0 0 0 0 0 0 -0 0 0 0 0 0 0 0 0 0 0 0 0 0 0 0 0 0 0 0 0 0
0 0 0 0 0 0 0 0 0 0 -0 -0 -0 0 0 0 0 0 0 0 0 0 0 0 0 0 0 0 0 0 0 0 0 0 0 0 0 0 0 0 0 0 0 0 0 0 0
0 0 0 0 0 0 0 0 0 0 0 -0 -0 0 0 0 0 0 0 0 0 0 0 0 0 0 0 0 0 0 0 0 0 -0 0 0 0 0 0 0 0 0 0 0 0 0 0
0 0 0 0 0 0 0 0 0 0 0 -0 0 0 0 0 0 0 0 0 0 0 0 0 0 0 0 0 0 0 0 0 0 0 0 0 0 0 0 0 0 0 0 0 0 0 0
0 0 0 0 0 0 0 0 0 0 -0 -0 0 0 0 0 0 0 0 0 0 0 0 0 0 0 0 0 0 0 0 0 0 0 0 0 0 0 0 0 0 0 0 0 0 0 0
0 0 0 0 0 0 0 0 0 0 -0 -0 0 0 0 0 0 0 0 0 0 0 0 0 0 0 0 0 0 0 0 0 0 0 0 0 0 0 0 0 0 0 0 0 0 0 0
0 0 0 0 0 0 0 0 0 0 0 0 0 0 0 0 0 0 0 0 0 0 0 0 0 0 0 0 0 0 0 0 0 0 0 0 0 0 0 0 0 0 0 0 0 0 0
0 0 0 0 0 0 0 0 0 0 0 0 0 0 0 0 0 0 0 0 0 0 0 0 0 0 0 0 0 0 0 0 0 0 0 0 0 0 0 0 0 0 0 0 0 0 0
0 0 0 0 0 0 0 0 0 0 0 0 0 0 0 0 0 0 0 0 0 0 0 0 0 0 0 0 0 0 0 0 0 0 0 0 0 0 0 0 0 0 0 0 0 0 0
0 0 0 0 0 0 0 0 0 0 0 0 0 0 0 0 0 0 0 0 0 0 0 0 0 0 0 0 0 0 0 0 0 0 0 0 0 0 0 0 0 0 0 0 0 0 0
0 0 0 0 0 0 0 0 0 0 0 0 0 0 0 0 0 0 0 0 0 0 0 0 0 0 0 0 0 0 0 0 0 0 0 0 0 0 0 0 0 0 0 0 0 0 0
0 0 0 0 0 0 0 0 0 0 0 0 0 0 0 0 0 0 0 0 0 0 0 0 0 0 0 0 0 0 0 0 0 0 0 0 0 0 0 0 0 0 0 0 0 0 0
0 0 0 0 0 0 0 0 0 0 0 0 0 0 0 0 0 0 0 0 0 0 0 0 0 0 0 0 0 0 0 0 0 0 0 0 0 0 0 0 0 0 0 0 0 0 0
0 0 0 0 0 0 0 0 0 0 0 0 0 0 0 0 0 0 0 0 0 0 0 0 0 0 0 0 0 0 0 0 0 0 0 0 0 0 0 0 0 0 0 -0 0 0 0
0 0 0 0 0 0 0 0 0 0 0 0 0 0 0 0 0 0 0 0 0 0 0 0 0 0 0 0 0 0 0 0 0 0 0 0 0 0 0 0 0 0 0 0 0 0 0
0 0 0 0 0 0 0 0 0 0 0 0 0 0 0 0 0 0 0 0 0 -0 0 0 0 0 0 0 0 0 0 0 0 0 0 0 0 0 0 0 0 0 0 0 0 0 0
Wind_Speed_500mb
58 58 56 53 53 54 53 54 58 56 55 53 47 37 29 23 19 19 17 15 12 10 10 11 10 10 11 10 14 4 2 6 8 10 20 12 9 7 5 9 22 10 14 45 60 64 62
56 58 57 57 57 55 56 56 55 57 56 54 51 40 31 24 19 18 14 13 12 11 10 10 8 10 10 7 5 10 3 8 12 8 3 13 14 23 18 7 5 14 19 31 32 43 46
53 56 59 59 60 61 61 60 59 58 55 55 50 43 33 24 20 15 14 15 13 12 12 10 9 11 19 28 6 11 3 7 7 6 16 14 20 17 18 14 20 23 14 17 10 13 11
48 52 55 58 60 61 63 64 62 59 57 54 52 43 32 25 17 17 13 13 16 13 10 7 7 11 16 6 23 22 17 13 7 5 12 19 12 15 9 22 23 11 7 8 9 13 21
48 50 53 55 57 60 62 64 66 63 59 55 50 45 34 23 19 20 17 14 15 14 9 5 7 11 18 14 22 29 29 29 19 20 22 8 10 8 11 6 10 9 10 17 17 12 10
47 48 50 54 57 58 60 62 63 65 62 57 51 44 36 24 18 18 21 22 22 16 9 10 15 14 12 5 8 14 21 17 28 25 18 21 8 1 6 8 8 11 9 13 14 14 8
43 46 50 51 54 58 59 60 62 63 64 60 54 44 35 24 18 15 21 17 18 3 16 26 31 33 39 13 10 13 12 25 26 23 4 11 5 12 24 19 25 16 24 31 31 18 5
42 45 48 52 54 56 58 59 59 61 62 62 58 49 33 22 19 14 20 21 15 26 28 46 52 58 51 41 17 23 17 15 22 12 5 9 13 29 19 22 22 27 31 32 19 12 9
40 42 44 46 52 54 57 59 59 61 63 62 61 56 39 22 17 17 22 19 22 22 13 36 25 33 45 36 34 44 22 33 12 11 13 17 22 20 20 24 26 21 13 14 21 11 8
43 44 46 47 47 53 56 60 62 63 66 67 64 59 49 28 17 10 5 24 24 24 8 13 11 9 21 30 13 43 44 38 13 25 19 15 30 22 20 15 8 10 11 25 27 15 21
43 44 46 50 50 50 54 56 62 64 71 74 69 63 51 33 17 14 19 16 18 13 5 7 10 9 22 31 6 13 39 46 28 22 14 23 12 16 15 20 3 11 6 7 15 23 8
45 46 47 46 52 50 54 56 58 62 70 79 76 66 52 27 19 4 17 18 12 9 8 4 8 9 10 13 14 4 28 43 32 16 13 25 33 11 19 4 10 6 2 6 5 5 15
44 47 48 49 50 50 51 55 59 66 68 75 80 66 44 26 2 1 13 8 9 5 12 10 5 8 5 8 11 12 17 13 21 6 15 19 21 19 5 3 10 18 13 9 8 5 27
45 44 46 49 50 51 50 51 63 72 74 85 77 65 28 10 15 8 5 7 4 8 7 23 9 10 2 11 12 14 14 8 14 3 3 9 8 2 5 7 9 6 10 7 11 9 18
45 44 45 45 51 53 52 56 62 71 81 83 78 57 19 1 17 9 4 4 9 7 11 4 7 5 7 10 3 12 7 7 4 5 9 3 4 7 1 9 12 7 9 7 6 5 7
45 41 41 40 47 51 51 55 60 66 71 81 75 56 18 15 17 11 7 9 9 4 22 8 2 2 4 8 9 10 6 3 4 4 7 3 8 5 7 5 6 6 5 2 2 6 11
44 41 40 39 41 46 49 51 55 62 72 76 58 26 4 17 16 6 4 11 11 22 31 9 5 8 7 6 8 8 9 18 11 4 8 8 8 7 4 2 4 2 0 7 3 6 7
42 42 39 39 40 44 46 49 53 62 73 77 39 8 6 23 2 6 5 7 29 17 30 6 6 3 6 4 6 7 10 9 33 20 7 9 10 6 13 11 8 6 9 10 7 6 8
38 38 35 35 38 44 49 50 49 58 69 63 36 16 23 21 4 5 14 16 14 10 9 13 9 7 5 1 6 6 16 24 24 12 7 11 2 3 13 10 5 6 9 12 3 5 12
38 35 36 40 44 47 44 43 45 55 54 48 17 7 13 18 10 4 10 11 22 26 15 11 5 11 9 6 1 10 16 9 29 14 5 12 7 13 12 14 9 9 11 17 17 8 8
45 42 42 42 44 40 41 42 45 47 44 37 7 7 11 7 10 15 16 19 27 24 19 26 9 16 10 6 11 12 7 8 17 2 10 6 8 9 12 16 20 23 25 24 20 29 15
40 43 42 42 41 38 35 39 43 43 39 27 11 10 14 20 24 18 12 6 19 21 15 17 14 25 12 9 12 24 6 5 9 4 6 6 7 4 7 12 15 21 25 32 34 34 27
35 37 38 39 40 38 35 40 42 41 32 12 12 16 12 11 6 8 6 11 23 25 21 17 31 30 27 26 21 27 27 24 20 9 6 3 4 6 8 6 13 14 6 12 14 15 7
29 29 33 35 38 39 37 37 37 35 24 20 17 19 8 8 9 8 20 33 27 18 19 40 42 31 25 18 34 37 40 33 24 18 21 9 4 5 7 7 3 7 14 5 14 18 12
30 29 27 29 34 39 39 34 30 27 15 15 20 10 6 7 12 22 17 15 24 27 26 33 45 26 18 9 7 11 7 6 3 8 14 16 9 2 3 3 13 8 14 14 13 8 13
32 31 28 26 29 34 34 31 25 20 15 13 17 17 13 8 10 12 16 13 5 6 11 18 47 30 13 4 3 4 5 6 4 4 9 11 7 8 4 5 9 0 14 32 15 13 10
29 30 31 29 30 27 23 24 22 17 16 15 18 20 13 11 28 6 5 6 7 8 7 16 30 17 13 4 2 3 6 8 3 1 4 3 2 8 9 8 11 8 19 38 4 10 35
26 26 26 26 26 24 18 18 21 17 17 19 20 20 18 14 41 44 12 15 13 12 5 16 20 10 8 5 2 5 4 4 5 6 4 9 4 4 4 6 11 13 6 1 9 38 42
20 22 19 20 24 23 18 17 21 20 18 20 25 20 25 24 38 43 56 67 67 39 29 12 13 20 6 3 5 4 5 5 2 4 6 5 5 4 9 10 4 4 23 11 38 37 50
Wind_Direction_500mb
22 23 21 19 15 13 13 11 9 11 9 6 2 359 357 350 340 332 332 335 329 312 297 288 274 258 281 285 257 300 198 34 76 111 168 188 252 242 237 236 268 187 259 256 253 251 250
16 17 21 20 18 15 13 11 13 10 10 11 5 3 359 357 354 348 350 349 341 324 305 286 268 262 260 272 195 167 176 265 180 171 219 250 280 295 259 235 152 296 289 284 280 269 263
14 13 12 16 18 16 14 12 10 11 10 8 11 5 0 359 357 4 3 2 355 330 314 300 279 265 262 246 190 185 190 90 167 236 302 320 332 0 345 340 333 311 311 314 276 256 247
11 11 11 10 12 15 14 12 10 9 9 8 7 7 3 356 4 3 353 349 356 346 322 304 282 290 261 98 197 212 215 188 145 260 259 296 330 325 354 321 335 339 360 330 284 311 292
4 7 7 8 8 9 10 11 9 8 7 7 5 3 1 358 353 352 348 331 332 329 313 294 285 298 269 195 225 233 219 226 243 256 237 281 280 278 298 58 359 338 261 285 305 257 253
358 0 3 3 4 5 7 7 9 7 5 3 3 360 355 351 349 346 349 342 317 296 284 278 250 306 243 219 240 204 226 236 242 270 269 234 252 159 358 84 240 249 265 263 272 288 212
352 353 355 358 359 0 3 4 4 5 4 1 357 355 354 344 339 338 344 349 355 324 262 256 269 260 270 266 170 179 179 208 230 260 162 276 76 242 240 220 237 246 260 265 274 263 273
346 348 350 351 354 355 357 359 2 1 0 359 354 348 344 339 328 331 336 336 338 336 297 287 268 254 259 263 286 212 195 200 212 211 249 351 249 249 242 253 242 249 252 260 263 252 252
338 341 342 346 347 351 350 352 356 358 357 355 354 344 339 326 309 316 332 4 337 331 291 302 252 236 235 234 245 244 228 217 184 204 219 206 239 257 252 256 260 260 241 262 263 265 271
332 334 336 339 345 345 347 348 351 356 354 351 352 344 335 325 306 291 1 1 356 346 18 279 194 223 215 228 237 244 224 201 200 213 226 237 252 255 281 287 284 295 352 7 327 298 277
326 327 331 334 336 343 343 346 348 357 356 349 348 343 336 311 287 279 343 333 330 318 342 214 168 185 180 171 169 207 205 203 219 218 144 233 225 251 270 269 84 253 347 2 344 326 290
321 323 326 331 331 338 341 343 347 359 359 352 345 342 336 315 276 321 343 323 329 52 269 226 137 181 137 216 246 271 207 219 234 220 231 246 251 201 245 269 186 275 335 358 7 61 277
317 320 324 326 328 334 339 338 345 354 351 346 343 340 331 318 172 87 331 350 46 155 296 33 123 102 232 259 241 227 237 210 218 198 243 265 265 266 104 32 12 48 46 333 331 290 261
314 317 321 325 327 330 335 332 335 342 348 342 337 338 332 350 179 197 357 52 176 262 286 345 11 357 334 358 346 356 5 338 257 345 13 201 303 76 134 124 150 124 140 180 242 254 283
314 318 321 325 328 328 332 332 331 334 335 335 335 338 332 95 162 154 75 95 219 247 323 349 352 333 348 10 354 14 323 257 81 142 172 44 237 6 287 160 138 144 179 172 223 324 286
321 315 316 327 326 327 330 333 332 338 338 337 336 331 325 185 171 170 87 234 251 291 327 307 148 289 342 310 323 357 289 229 124 109 104 263 309 310 58 101 258 152 153 208 285 264 258
320 317 313 319 324 323 328 335 338 337 337 334 341 330 354 187 179 174 181 236 268 301 22 318 288 260 256 338 303 291 261 323 30 313 142 159 157 259 47 272 173 248 99 30 204 184 225
321 318 316 317 322 323 328 335 339 337 335 338 340 326 350 185 193 217 217 239 347 331 3 318 337 135 166 254 266 283 255 250 331 327 244 188 154 201 225 252 189 141 167 162 156 259 230
320 320 319 320 325 325 326 331 337 341 346 350 329 292 19 212 240 2 329 321 286 334 359 331 291 278 49 77 326 256 303 316 334 351 209 183 190 27 336 352 328 224 195 184 153 82 213
302 309 316 318 323 326 328 329 334 345 357 351 319 319 325 349 51 39 340 311 327 321 348 353 0 27 16 343 34 285 309 316 348 339 280 132 157 168 215 222 196 250 243 201 181 179 224
292 294 302 309 318 325 325 324 331 344 356 355 302 291 8 327 330 329 329 315 335 332 360 337 329 352 320 281 302 273 291 334 340 28 5 83 211 223 237 251 271 282 281 276 234 240 224
295 291 291 299 308 313 315 315 326 340 352 360 302 340 340 303 306 347 326 291 300 322 333 312 341 318 299 248 236 288 279 214 228 339 38 6 275 320 234 250 280 292 289 279 270 265 243
304 297 289 291 301 306 308 309 319 334 346 349 296 313 319 279 295 291 240 318 312 312 296 313 320 317 299 283 276 265 253 232 229 219 220 211 155 10 269 310 308 299 307 280 291 56 344
309 300 292 288 292 300 303 305 316 326 334 347 330 317 267 275 259 263 295 302 294 327 298 294 293 291 288 285 293 281 267 256 220 226 180 182 163 156 268 2 261 214 12 310 351 95 83
314 307 304 297 294 297 300 307 313 317 316 333 332 328 277 274 292 291 280 314 313 304 291 289 296 313 316 329 336 328 336 6 58 241 211 190 139 257 161 196 287 325 9 337 335 275 36
303 301 300 298 292 292 300 302 309 299 300 291 310 322 267 291 254 288 316 301 306 292 295 255 328 336 294 46 8 297 274 311 352 15 56 78 110 154 119 203 242 90 332 319 299 249 35
292 292 293 295 292 290 295 292 297 281 283 279 278 316 275 257 278 285 256 290 248 267 266 292 335 319 347 28 348 231 270 343 28 97 15 339 332 213 213 225 283 355 344 321 227 289 340
301 297 294 297 293 284 280 278 283 271 271 275 269 297 294 250 276 280 256 236 249 249 239 320 332 0 349 7 6 331 343 304 26 276 197 169 227 228 230 221 247 26 340 43 302 323 309
301 309 306 298 294 282 266 261 268 272 256 266 257 277 318 257 263 277 277 277 268 246 257 272 293 305 318 8 13 342 329 337 155 299 11 78 203 233 195 230 192 296 289 253 324 303 303
Wind_Speed_850mb
58 58 56 53 53 54 53 54 58 56 55 53 47 37 29 23 19 19 17 15 12 10 10 11 10 10 11 10 14 4 2 6 8 10 20 12 9 7 5 9 22 10 14 45 60 64 62
56 58 57 57 57 55 56 56 55 57 56 54 51 40 31 24 19 18 14 13 12 11 10 10 8 10 10 7 5 10 3 8 12 8 3 13 14 23 18 7 5 14 19 31 32 43 46
53 56 59 59 60 61 61 60 59 58 55 55 50 43 33 24 20 15 14 15 13 12 12 10 9 11 19 28 6 11 3 7 7 6 16 14 20 17 18 14 20 23 14 17 10 13 11
48 52 55 58 60 61 63 64 62 59 57 54 52 43 32 25 17 17 13 13 16 13 10 7 7 11 16 6 23 22 17 13 7 5 12 19 12 15 9 22 23 11 7 8 9 13 21
48 50 53 55 57 60 62 64 66 63 59 55 50 45 34 23 19 20 17 14 15 14 9 5 7 11 18 14 22 29 29 29 19 20 22 8 10 8 11 6 10 9 10 17 17 12 10
47 48 50 54 57 58 60 62 63 65 62 57 51 44 36 24 18 18 21 22 22 16 9 10 15 14 12 5 8 14 21 17 28 25 18 21 8 1 6 8 8 11 9 13 14 14 8
43 46 50 51 54 58 59 60 62 63 64 60 54 44 35 24 18 15 21 17 18 3 16 26 31 33 39 13 10 13 12 25 26 23 4 11 5 12 24 19 25 16 24 31 31 18 5
42 45 48 52 54 56 58 59 59 61 62 62 58 49 33 22 19 14 20 21 15 26 28 46 52 58 51 41 17 23 17 15 22 12 5 9 13 29 19 22 22 27 31 32 19 12 9
40 42 44 46 52 54 57 59 59 61 63 62 61 56 39 22 17 17 22 19 22 22 13 36 25 33 45 36 34 44 22 33 12 11 13 17 22 20 20 24 26 21 13 14 21 11 8
43 44 46 47 47 53 56 60 62 63 66 67 64 59 49 28 17 10 5 24 24 24 8 13 11 9 21 30 13 43 44 38 13 25 19 15 30 22 20 15 8 10 11 25 27 15 21
43 44 46 50 50 50 54 56 62 64 71 74 69 63 51 33 17 14 19 16 18 13 5 7 10 9 22 31 6 13 39 46 28 22 14 23 12 16 15 20 3 11 6 7 15 23 8
45 46 47 46 52 50 54 56 58 62 70 79 76 66 52 27 19 4 17 18 12 9 8 4 8 9 10 13 14 4 28 43 32 16 13 25 33 11 19 4 10 6 2 6 5 5 15
44 47 48 49 50 50 51 55 59 66 68 75 80 66 44 26 2 1 13 8 9 5 12 10 5 8 5 8 11 12 17 13 21 6 15 19 21 19 5 3 10 18 13 9 8 5 27
45 44 46 49 50 51 50 51 63 72 74 85 77 65 28 10 15 8 5 7 4 8 7 23 9 10 2 11 12 14 14 8 14 3 3 9 8 2 5 7 9 6 10 7 11 9 18
45 44 45 45 51 53 52 56 62 71 81 83 78 57 19 1 17 9 4 4 9 7 11 4 7 5 7 10 3 12 7 7 4 5 9 3 4 7 1 9 12 7 9 7 6 5 7
45 41 41 40 47 51 51 55 60 66 71 81 75 56 18 15 17 11 7 9 9 4 22 8 2 2 4 8 9 10 6 3 4 4 7 3 8 5 7 5 6 6 5 2 2 6 11
44 41 40 39 41 46 49 51 55 62 72 76 58 26 4 17 16 6 4 11 11 22 31 9 5 8 7 6 8 8 9 18 11 4 8 8 8 7 4 2 4 2 0 7 3 6 7
42 42 39 39 40 44 46 49 53 62 73 77 39 8 6 23 2 6 5 7 29 17 30 6 6 3 6 4 6 7 10 9 33 20 7 9 10 6 13 11 8 6 9 10 7 6 8
38 38 35 35 38 44 49 50 49 58 69 63 36 16 23 21 4 5 14 16 14 10 9 13 9 7 5 1 6 6 16 24 24 12 7 11 2 3 13 10 5 6 9 12 3 5 12
38 35 36 40 44 47 44 43 45 55 54 48 17 7 13 18 10 4 10 11 22 26 15 11 5 11 9 6 1 10 16 9 29 14 5 12 7 13 12 14 9 9 11 17 17 8 8
45 42 42 42 44 40 41 42 45 47 44 37 7 7 11 7 10 15 16 19 27 24 19 26 9 16 10 6 11 12 7 8 17 2 10 6 8 9 12 16 20 23 25 24 20 29 15
40 43 42 42 41 38 35 39 43 43 39 27 11 10 14 20 24 18 12 6 19 21 15 17 14 25 12 9 12 24 6 5 9 4 6 6 7 4 7 12 15 21 25 32 34 34 27
35 37 38 39 40 38 35 40 42 41 32 12 12 16 12 11 6 8 6 11 23 25 21 17 31 30 27 26 21 27 27 24 20 9 6 3 4 6 8 6 13 14 6 12 14 15 7
29 29 33 35 38 39 37 37 37 35 24 20 17 19 8 8 9 8 20 33 27 18 19 40 42 31 25 18 34 37 40 33 24 18 21 9 4 5 7 7 3 7 14 5 14 18 12
30 29 27 29 34 39 39 34 30 27 15 15 20 10 6 7 12 22 17 15 24 27 26 33 45 26 18 9 7 11 7 6 3 8 14 16 9 2 3 3 13 8 14 14 13 8 13
32 31 28 26 29 34 34 31 25 20 15 13 17 17 13 8 10 12 16 13 5 6 11 18 47 30 13 4 3 4 5 6 4 4 9 11 7 8 4 5 9 0 14 32 15 13 10
29 30 31 29 30 27 23 24 22 17 16 15 18 20 13 11 28 6 5 6 7 8 7 16 30 17 13 4 2 3 6 8 3 1 4 3 2 8 9 8 11 8 19 38 4 10 35
26 26 26 26 26 24 18 18 21 17 17 19 20 20 18 14 41 44 12 15 13 12 5 16 20 10 8 5 2 5 4 4 5 6 4 9 4 4 4 6 11 13 6 1 9 38 42
20 22 19 20 24 23 18 17 21 20 18 20 25 20 25 24 38 43 56 67 67 39 29 12 13 20 6 3 5 4 5 5 2 4 6 5 5 4 9 10 4 4 23 11 38 37 50
Wind_Direction_850mb
22 23 21 19 15 13 13 11 9 11 9 6 2 359 357 350 340 332 332 335 329 312 297 288 274 258 281 285 257 300 198 34 76 111 168 188 252 242 237 236 268 187 259 256 253 251 250
16 17 21 20 18 15 13 11 13 10 10 11 5 3 359 357 354 348 350 349 341 324 305 286 268 262 260 272 195 167 176 265 180 171 219 250 280 295 259 235 152 296 289 284 280 269 263
14 13 12 16 18 16 14 12 10 11 10 8 11 5 0 359 357 4 3 2 355 330 314 300 279 265 262 246 190 185 190 90 167 236 302 320 332 0 345 340 333 311 311 314 276 256 247
11 11 11 10 12 15 14 12 10 9 9 8 7 7 3 356 4 3 353 349 356 346 322 304 282 290 261 98 197 212 215 188 145 260 259 296 330 325 354 321 335 339 360 330 284 311 292
4 7 7 8 8 9 10 11 9 8 7 7 5 3 1 358 353 352 348 331 332 329 313 294 285 298 269 195 225 233 219 226 243 256 237 281 280 278 298 58 359 338 261 285 305 257 253
358 0 3 3 4 5 7 7 9 7 5 3 3 360 355 351 349 346 349 342 317 296 284 278 250 306 243 219 240 204 226 236 242 270 269 234 252 159 358 84 240 249 265 263 272 288 212
352 353 355 358 359 0 3 4 4 5 4 1 357 355 354 344 339 338 344 349 355 324 262 256 269 260 270 266 170 179 179 208 230 260 162 276 76 242 240 220 237 246 260 265 274 263 273
346 348 350 351 354 355 357 359 2 1 0 359 354 348 344 339 328 331 336 336 338 336 297 287 268 254 259 263 286 212 195 200 212 211 249 351 249 249 242 253 242 249 252 260 263 252 252
338 341 342 346 347 351 350 352 356 358 357 355 354 344 339 326 309 316 332 4 337 331 291 302 252 236 235 234 245 244 228 217 184 204 219 206 239 257 252 256 260 260 241 262 263 265 271
332 334 336 339 345 345 347 348 351 356 354 351 352 344 335 325 306 291 1 1 356 346 18 279 194 223 215 228 237 244 224 201 200 213 226 237 252 255 281 287 284 295 352 7 327 298 277
326 327 331 334 336 343 343 346 348 357 356 349 348 343 336 311 287 279 343 333 330 318 342 214 168 185 180 171 169 207 205 203 219 218 144 233 225 251 270 269 84 253 347 2 344 326 290
321 323 326 331 331 338 341 343 347 359 359 352 345 342 336 315 276 321 343 323 329 52 269 226 137 181 137 216 246 271 207 219 234 220 231 246 251 201 245 269 186 275 335 358 7 61 277
317 320 324 326 328 334 339 338 345 354 351 346 343 340 331 318 172 87 331 350 46 155 296 33 123 102 232 259 241 227 237 210 218 198 243 265 265 266 104 32 12 48 46 333 331 290 261
314 317 321 325 327 330 335 332 335 342 348 342 337 338 332 350 179 197 357 52 176 262 286 345 11 357 334 358 346 356 5 338 257 345 13 201 303 76 134 124 150 124 140 180 242 254 283
314 318 321 325 328 328 332 332 331 334 335 335 335 338 332 95 162 154 75 95 219 247 323 349 352 333 348 10 354 14 323 257 81 142 172 44 237 6 287 160 138 144 179 172 223 324 286
321 315 316 327 326 327 330 333 332 338 338 337 336 331 325 185 171 170 87 234 251 291 327 307 148 289 342 310 323 357 289 229 124 109 104 263 309 310 58 101 258 152 153 208 285 264 258
320 317 313 319 324 323 328 335 338 337 337 334 341 330 354 187 179 174 181 236 268 301 22 318 288 260 256 338 303 291 261 323 30 313 142 159 157 259 47 272 173 248 99 30 204 184 225
321 318 316 317 322 323 328 335 339 337 335 338 340 326 350 185 193 217 217 239 347 331 3 318 337 135 166 254 266 283 255 250 331 327 244 188 154 201 225 252 189 141 167 162 156 259 230
320 320 319 320 325 325 326 331 337 341 346 350 329 292 19 212 240 2 329 321 286 334 359 331 291 278 49 77 326 256 303 316 334 351 209 183 190 27 336 352 328 224 195 184 153 82 213
302 309 316 318 323 326 328 329 334 345 357 351 319 319 325 349 51 39 340 311 327 321 348 353 0 27 16 343 34 285 309 316 348 339 280 132 157 168 215 222 196 250 243 201 181 179 224
292 294 302 309 318 325 325 324 331 344 356 355 302 291 8 327 330 329 329 315 335 332 360 337 329 352 320 281 302 273 291 334 340 28 5 83 211 223 237 251 271 282 281 276 234 240 224
295 291 291 299 308 313 315 315 326 340 352 360 302 340 340 303 306 347 326 291 300 322 333 312 341 318 299 248 236 288 279 214 228 339 38 6 275 320 234 250 280 292 289 279 270 265 243
304 297 289 291 301 306 308 309 319 334 346 349 296 313 319 279 295 291 240 318 312 312 296 313 320 317 299 283 276 265 253 232 229 219 220 211 155 10 269 310 308 299 307 280 291 56 344
309 300 292 288 292 300 303 305 316 326 334 347 330 317 267 275 259 263 295 302 294 327 298 294 293 291 288 285 293 281 267 256 220 226 180 182 163 156 268 2 261 214 12 310 351 95 83
314 307 304 297 294 297 300 307 313 317 316 333 332 328 277 274 292 291 280 314 313 304 291 289 296 313 316 329 336 328 336 6 58 241 211 190 139 257 161 196 287 325 9 337 335 275 36
303 301 300 298 292 292 300 302 309 299 300 291 310 322 267 291 254 288 316 301 306 292 295 255 328 336 294 46 8 297 274 311 352 15 56 78 110 154 119 203 242 90 332 319 299 249 35
292 292 293 295 292 290 295 292 297 281 283 279 278 316 275 257 278 285 256 290 248 267 266 292 335 319 347 28 348 231 270 343 28 97 15 339 332 213 213 225 283 355 344 321 227 289 340
301 297 294 297 293 284 280 278 283 271 271 275 269 297 294 250 276 280 256 236 249 249 239 320 332 0 349 7 6 331 343 304 26 276 197 169 227 228 230 221 247 26 340 43 302 323 309
301 309 306 298 294 282 266 261 268 272 256 266 257 277 318 257 263 277 277 277 268 246 257 272 293 305 318 8 13 342 329 337 155 299 11 78 203 233 195 230 192 296 289 253 324 303 303